{"data":{"norad_id":64171,"intl_designator":"2025-113B","name":"STARLINK-34228","alt_names":[],"object_type":"PAYLOAD","status":"ACTIVE","operator":null,"country":"US","launch_date":"2025-05-28","launch_site_code":"AFETR","launch_vehicle":null,"mission":null,"orbit_class":"UNKNOWN","rcs_meters":null,"size_class":null,"mass_kg":null,"dimensions":null,"purposes":["comms"],"wikipedia_slug":null,"has_3d_model":false,"image_url":null,"decayed_at":null,"tle_current":{"epoch":"2026-05-25T02:38:40.083360Z","epoch_age_seconds":62623,"freshness":"FRESH","line1":"1 64171U 25113B   26145.11018615  .00024049  00000+0  78381-3 0  9990","line2":"2 64171  53.1579  95.5852 0001027  95.8550 264.2569 15.31717423 56770","mean_motion":15.31717423,"eccentricity":0.0001027,"inclination_deg":53.1579,"raan_deg":95.5852,"arg_perigee_deg":95.855,"mean_anomaly_deg":264.2569,"bstar":0.00078381,"rev_number":5677,"period_min":94.012118578611,"perigee_km":469.98468432805,"apogee_km":471.3914329951,"semimajor_km":6848.8250586616,"source":"CELESTRAK","updated_at":"2026-05-25T13:38:20.308943Z"}}}